Location: Bishausen
(51.6334°N, 9.9631°E)
Time: 05:55:37
(UTC+00:00)

BREEZE-M DEB (TANK) - Visible Passes

Search period start: 09 July 2025 00:00
Search period end: 19 July 2025 00:00
Orbit: 318 x 16608 km, 49.4° (Epoch: 07 July)

Date Brightness Start Highest point End Pass type
(mag) Time Alt. Az. Time Alt. Az. Time Alt. Az.
09 Jul 8.3 00:28:01 10° W 01:08:08 84° SSW 03:50:40 10° SE visible
09 Jul 7.3 20:18:19 10° SSW 20:32:52 66° SE 22:24:32 10° ENE visible
10 Jul 8.5 01:31:11 10° WNW 02:23:12 77° SW 04:55:59 10° SSE visible
10 Jul 7.6 21:19:25 10° SW 21:37:09 79° SSE 23:58:39 10° E visible
11 Jul 7.9 22:21:09 10° WSW 22:44:16 85° S 01:23:39 10° ESE visible
12 Jul 8.2 23:23:24 10° W 23:54:40 86° S 02:39:07 10° SE visible
13 Jul 7.1 19:15:12 10° SSW 19:27:51 55° ESE 20:53:15 10° ENE visible
14 Jul 8.4 00:26:06 10° W 01:08:03 81° SSW 03:47:48 10° SSE visible
14 Jul 7.4 20:15:43 10° SW 20:30:24 72° SE 22:28:42 10° E visible
15 Jul 8.6 01:29:12 10° WNW 02:21:52 73° SW 04:51:28 10° S visible
15 Jul 7.7 21:16:58 10° WSW 21:35:23 82° SSE 00:01:20 10° ESE visible
16 Jul 8.8 02:32:48 10° WNW 03:32:30 61° WSW 05:50:33 10° S visible
16 Jul 8.0 22:18:47 10° W 22:43:11 86° S 01:23:36 10° ESE visible
17 Jul 8.3 23:21:03 10° W 23:54:00 84° SSW 02:36:51 10° SE visible
18 Jul 7.2 19:12:02 10° SSW 19:24:32 62° SE 20:55:59 10° ENE visible
